Back to Top
Banner_Quays_at_Mast_2020.jpeg
Banner_VERITY.jpeg
Banner_P42_Kinsale_2004.jpeg
Superyacht_SCOUT.jpg
Kinsale_Trawlers_Banner.jpeg
previous arrow
next arrow

Port Arrivals Report (AIS)

This report is generated from collected AIS (Automated Identification System) signals from vessels entering port.

IMO MMSI Class Flag Vessel Name Vessel type Nav Status Destination Call Sign Latitude Longitude Speed (kts) Course (T) Draught (m) LOA (m) Beam (m) Timestamp
0 235029073 B GB TIGGER TOO SAILING. - MYBD6 51.6876 -8.49947 5.3 349.5 0 11 4 2024-05-26 19:15:51
0 250001311 B IE ZURI SAILING. - EI-EB-7 51.6883 -8.49779 3 7.4 0 11 4 2024-05-26 12:56:37
0 235115374 B GB ATALANTA SAILING. - 2JFA7 51.688 -8.49948 5 354.7 0 12 4 2024-05-26 10:58:49
0 227120410 B FR LOGODEN SAILING. - FAA4170 51.6876 -8.49778 4.8 359.4 0 10 4 2024-05-26 06:30:24
0 250014114 B IE JAVA BLUE SAILING. - EIA2579 51.6875 -8.49811 6.9 342.7 0 14 4 2024-05-25 16:19:00
0 232031872 B GB EIVIVA SAILING. - MIKT3 51.6884 -8.49887 6.9 355.1 0 0 0 2024-05-25 14:18:54
0 250006372 B IE DALLIANCE SAILING. - EI6765 51.6887 -8.49958 4.7 16.5 0 8 4 2024-05-25 05:37:54
0 250006035 B IE VALFREYA SAILING. - EI-XB-6 51.688 -8.49762 6.2 315.8 0 10 3 2024-05-24 20:03:05
0 250003677 B IE SIBONEY SAILING. - EI-QT-2 51.6873 -8.4964 5.7 318 0 9 4 2024-05-24 20:01:51
0 250003294 B IE STILL MAGIC SAILING. - EI-JP-6 51.6874 -8.49987 7.1 350.8 0 12 3 2024-05-24 19:55:50
0 250006035 B IE VALFREYA SAILING. - EI-XB-6 51.6873 -8.50105 5.9 332.8 0 10 3 2024-05-24 18:44:18
0 250103750 B IE HARPY DREDGING / UNDERWATER Ops. - EI7410 51.6881 -8.49919 7.9 338.7 0 13 4 2024-05-24 17:38:27
0 250013607 B IE DRUMLIN SAILING. - EIA2063 51.6879 -8.50021 4.3 1.7 0 10 4 2024-05-24 16:17:15
0 228204870 B FR CHINA CLIPPER SAILING. - FAK7429 51.6886 -8.49972 6.4 355.6 0 15 4 2024-05-24 13:37:05
0 250003953 B IE ALICE AGAIN FISHING. - EI8857 51.6872 -8.49663 7.2 336 0 10 4 2024-05-24 13:11:42
0 227202030 B FR MAJOR TOM SAILING. - FAB4236 51.688 -8.49746 5.2 9.3 0 11 3 2024-05-24 12:39:41
0 250001702 A IE ADRIANNE FISHING. Undefined CO EIGX7 51.6874 -8.49984 3.1 351.3 3.5 21 7 2024-05-24 11:58:58
0 250003764 B IE MICHELLE FISHING. - EI-8817 51.6879 -8.4993 5.1 345.9 0 10 4 2024-05-24 11:40:17
9297462 250106800 A IE OILEAN AN OIR FISHING. - EI7573 51.7017 -8.51727 0 31 0 27 8 2024-05-24 11:16:48
9068598 250000608 A IE HANNAH J - Undefined EI8715 51.6876 -8.49955 8.2 342 0 20 8 2024-05-24 05:41:54